User: anonymous   Login
Location: ????????
(37.6846°N, 24.0673°E)
Time: 06:46:06
(UTC+00:00)
Language:

Cosmos 2016 Rocket - Orbit

View from above orbital plane
View from above orbital plane
View from above satellite
View from above satellite

Ground track
Ground track

The orbit data is extracted from the following two-line orbital elements,

1 19922U 89028B   20273.66348243 +.00000021 +00000-0 +53054-5 0  9995
2 19922 082.9558 256.2009 0037785 121.8100 238.6746 13.77222545582211
Epoch (UTC): 29 September 2020 15:55:24
Eccentricity: 0.0037785
inclination: 82.9558°
perigee height: 946 km
apogee height: 1001 km
right ascension of ascending node: 256.2009°
argument of perigee: 121.8100°
revolutions per day: 13.77222545
mean anomaly at epoch: 238.6746°
orbit number at epoch: 58221

The dashed part of the orbit path shows where the satellite is in the earth's shadow,  

DLR